Cloud_Cover
86 89 50 41 70 15 86 82 100 5 5 5 61 2 0 0 0 0 0 0 0 0 9 29 56 3 0 4 4 0 0 5 0 5 5 5 5 23 1 3 37 3 0 0 0
100 68 78 13 52 11 84 100 100 62 14 48 17 6 4 0 0 0 0 0 0 4 5 28 86 80 4 0 0 0 0 0 0 3 5 13 44 100 5 3 0 0 0 0 0
100 100 79 7 76 96 100 100 100 100 68 100 100 6 5 0 0 0 0 0 0 0 7 6 92 99 28 0 0 4 1 0 0 2 95 100 100 25 7 18 5 3 1 2 1
100 93 97 38 100 100 100 100 100 100 100 80 51 5 0 3 2 5 5 5 5 1 0 0 0 0 0 2 5 5 74 60 95 100 100 91 5 5 40 2 0 0 5 2 5
2 97 100 96 100 100 100 100 100 49 54 28 5 4 5 2 2 5 5 5 5 5 5 5 2 0 1 5 5 100 100 100 87 100 96 36 80 75 5 0 3 5 0 5 5
0 6 5 54 100 100 100 100 97 90 29 5 5 5 5 5 5 5 5 5 5 5 5 4 2 3 1 6 49 100 23 99 69 61 6 5 4 5 0 2 3 3 5 5 5
0 4 5 5 69 100 100 100 100 100 78 72 25 5 5 5 5 5 5 5 5 5 5 5 5 5 67 99 36 61 100 100 100 78 10 5 5 0 2 5 5 31 11 5 5
0 5 2 5 5 35 100 100 100 100 100 100 83 9 9 5 5 5 5 5 5 5 5 5 5 15 36 5 5 99 100 100 100 48 5 5 5 7 6 5 5 5 5 8 1
5 4 5 5 5 5 61 100 100 100 47 90 100 98 17 15 7 5 5 40 36 15 5 5 5 5 11 5 55 100 100 100 7 5 5 5 40 7 46 67 10 17 4 0 0
5 5 5 2 5 32 98 80 7 5 5 5 5 13 57 30 65 11 14 5 5 13 5 5 20 5 5 9 100 100 100 57 17 16 24 6 9 89 100 47 5 3 3 0 2
5 5 5 5 4 5 21 34 74 42 19 5 5 8 34 94 36 16 37 19 5 5 26 95 81 5 5 5 63 100 100 89 67 100 77 6 75 82 63 63 5 5 5 5 5
5 5 5 8 4 3 5 4 5 5 14 5 5 5 5 5 5 5 35 99 64 7 77 100 32 5 33 66 76 100 100 100 100 100 92 70 100 99 68 5 5 4 5 4 0
89 5 5 13 23 5 5 5 5 5 5 5 5 20 8 5 5 5 13 26 37 85 63 90 97 100 100 97 64 100 100 100 70 99 80 30 62 5 5 1 0 3 5 5 4
30 5 31 8 5 16 52 19 7 11 34 8 12 69 48 40 15 35 16 54 12 7 20 29 100 22 10 30 97 100 100 100 99 100 100 67 5 5 5 5 4 1 1 1 0
50 5 5 5 8 54 49 64 81 70 69 44 38 69 99 100 99 100 81 46 7 5 8 96 100 100 100 100 100 97 74 88 100 99 44 5 5 5 2 0 0 4 4 0 0
100 99 66 29 14 40 99 100 84 38 68 100 100 100 96 100 100 96 100 100 100 100 99 92 100 56 8 36 17 8 25 63 69 34 5 5 5 5 3 1 4 5 5 0 0
100 100 100 100 100 100 100 100 100 100 100 100 100 100 100 86 78 58 41 77 36 8 20 43 58 5 5 5 61 65 78 83 86 27 7 5 5 5 5 3 8 5 3 0 0
100 100 100 100 100 100 100 100 100 100 100 100 100 100 100 35 5 14 6 5 5 5 5 80 89 35 5 5 22 66 92 49 53 82 94 12 19 5 5 47 68 4 0 0 0
100 100 100 100 100 99 88 100 98 34 22 5 24 41 31 6 5 10 22 10 5 5 5 5 21 48 50 61 11 5 5 21 20 10 6 64 43 6 34 100 12 0 0 0 0
100 100 100 100 100 86 86 39 92 37 8 13 31 29 38 5 26 5 5 5 26 20 5 6 5 12 64 79 35 5 5 5 5 16 32 84 90 99 40 0 0 0 0 17 5
100 100 100 100 100 100 92 8 42 59 25 65 34 18 38 84 9 18 84 22 5 7 8 5 5 8 29 5 5 8 37 27 45 100 96 66 84 63 3 0 0 1 12 41 5
100 100 100 100 100 100 100 99 99 100 78 39 6 23 57 59 7 5 73 7 76 10 7 14 88 36 5 5 5 5 28 21 91 100 40 35 98 0 0 5 9 6 84 6 90
100 100 100 100 100 100 100 100 100 100 100 89 78 64 86 52 5 5 94 88 64 20 5 7 5 5 5 8 6 75 6 32 72 100 100 80 0 0 4 100 76 15 91 100 97
100 100 100 100 100 100 100 100 100 100 91 100 99 83 82 87 61 49 57 39 8 5 9 26 5 6 27 8 62 63 100 100 56 56 15 0 0 4 56 100 100 98 100 99 5
100 100 100 100 100 100 100 100 100 100 100 100 100 100 53 74 95 81 86 80 17 5 5 5 5 16 84 99 100 96 13 18 11 4 5 5 1 35 100 96 34 75 98 64 27
100 100 100 100 100 100 100 100 100 100 100 100 100 100 84 100 100 76 5 26 58 99 61 7 89 100 100 51 32 99 82 5 5 5 100 9 20 100 100 100 100 100 100 56 42
100 100 100 100 100 100 100 100 100 100 100 100 100 100 100 99 96 77 93 96 99 100 67 12 86 93 100 100 97 9 4 63 63 100 32 61 100 100 100 100 49 5 6 94 100